Location: Mainz-Finthen
(49.9906°N, 8.1713°E)
Time: 21:44:53
(UTC+00:00)

Envisat - Pass Details

Date: 05 October 2021
Orbit: 764 x 766 km, 98.2° (Epoch: 16 October)

Event Time Altitude Azimuth Distance (km) Brightness Sun altitude
Rises 17:23:50 0° 224° (SW) 3,223 7.0 -5.2°
Reaches altitude 10° 17:28:04 10° 259° (W) 2,304 7.2 -5.8°
Maximum altitude 17:29:33 11° 276° (W) 2,225 7.2 -6.1°
Drops below altitude 10° 17:31:02 10° 293° (WNW) 2,309 6.8 -6.3°
Sets 17:35:19 0° 328° (NNW) 3,242 6.7 -7.0°
